| time (UTC) | temp C | wind direction | speed KPH | gust KPH | rain 1hr cm | rain 24hr cm | rain mn cm | humidity % | barometer mb |
| 20260506103055 | 18 | 133 | 6.4 | 30.6 | 0.00 | 0.00 | 0.00 | 53 | 1011.6 |
| 20260506101552 | 19 | 104 | 16.1 | 30.6 | 0.00 | 0.00 | 0.00 | 50 | 1011.0 |
| 20260506100106 | 19 | 76 | 1.6 | 4.8 | 0.00 | 0.00 | 0.00 | 49 | 1010.9 |
| 20260506094603 | 19 | 0 | 0.0 | 4.8 | 0.00 | 0.00 | 0.00 | 47 | 1010.8 |
| 20260506093051 | 20 | 279 | 1.6 | 3.2 | 0.00 | 0.00 | 0.00 | 48 | 1010.9 |
| 20260506091552 | 20 | 212 | 1.6 | 4.8 | 0.00 | 0.00 | 0.00 | 47 | 1010.7 |
| 20260506090051 | 20 | 250 | 1.6 | 4.8 | 0.00 | 0.00 | 0.00 | 47 | 1010.8 |
| 20260506084554 | 20 | 235 | 3.2 | 8.0 | 0.00 | 0.00 | 0.00 | 44 | 1010.6 |
| 20260506083055 | 20 | 207 | 3.2 | 6.4 | 0.00 | 0.00 | 0.00 | 45 | 1010.5 |
| 20260506081602 | 20 | 196 | 0.0 | 4.8 | 0.00 | 0.00 | 0.00 | 46 | 1010.4 |
| 20260506073057 | 20 | 193 | 1.6 | 4.8 | 0.00 | 0.00 | 0.00 | 48 | 1010.6 |
| 20260506071553 | 20 | 254 | 1.6 | 4.8 | 0.00 | 0.00 | 0.00 | 47 | 1010.6 |
| 20260506061557 | 20 | 158 | 1.6 | 6.4 | 0.00 | 0.00 | 0.00 | 44 | 1010.8 |
| 20260506044557 | 21 | 9 | 3.2 | 6.4 | 0.00 | 0.00 | 0.00 | 41 | 1010.4 |
| 20260506043110 | 22 | 162 | 1.6 | 6.4 | 0.00 | 0.00 | 0.00 | 39 | 1010.3 |
| 20260506041558 | 22 | 178 | 3.2 | 8.0 | 0.00 | 0.00 | 0.00 | 38 | 1010.4 |
| 20260506040056 | 22 | 163 | 4.8 | 11.3 | 0.00 | 0.00 | 0.00 | 37 | 1009.9 |
| 20260506034612 | 23 | 165 | 6.4 | 14.5 | 0.00 | 0.00 | 0.00 | 36 | 1009.8 |
| 20260506033055 | 23 | 147 | 9.7 | 16.1 | 0.00 | 0.00 | 0.00 | 35 | 1009.4 |
| 20260506031555 | 23 | 129 | 3.2 | 9.7 | 0.00 | 0.00 | 0.00 | 35 | 1009.1 |
| 20260506030055 | 23 | 139 | 3.2 | 8.0 | 0.00 | 0.00 | 0.00 | 35 | 1008.9 |
| 20260506024556 | 23 | 153 | 3.2 | 6.4 | 0.00 | 0.00 | 0.00 | 34 | 1008.7 |
| 20260506023101 | 24 | 162 | 0.0 | 3.2 | 0.00 | 0.00 | 0.00 | 32 | 1008.6 |
| 20260506021556 | 25 | 325 | 3.2 | 8.0 | 0.00 | 0.00 | 0.00 | 32 | 1008.6 |
| 20260506020058 | 25 | 314 | 3.2 | 6.4 | 0.00 | 0.00 | 0.00 | 31 | 1008.6 |
| 20260506014557 | 25 | 334 | 4.8 | 14.5 | 0.00 | 0.00 | 0.00 | 30 | 1008.5 |
| 20260506013106 | 25 | 239 | 6.4 | 17.7 | 0.00 | 0.00 | 0.00 | 30 | 1008.4 |
| 20260506011558 | 26 | 319 | 14.5 | 25.7 | 0.00 | 0.00 | 0.00 | 30 | 1008.2 |
| 20260506010119 | 26 | 279 | 12.9 | 25.7 | 0.00 | 0.00 | 0.00 | 29 | 1008.3 |
| 20260506004552 | 26 | 279 | 16.1 | 25.7 | 0.00 | 0.00 | 0.00 | 29 | 1008.3 |
| 20260506003056 | 26 | 310 | 19.3 | 33.8 | 0.00 | 0.00 | 0.00 | 28 | 1008.6 |
| 20260506001601 | 26 | 298 | 19.3 | 46.7 | 0.00 | 0.00 | 0.00 | 28 | 1008.9 |
| 20260506000056 | 26 | 272 | 16.1 | 45.1 | 0.00 | 0.00 | 0.00 | 27 | 1009.2 |
| 20260505234556 | 26 | 271 | 27.4 | 43.5 | 0.00 | 0.00 | 0.00 | 27 | 1009.0 |
| 20260505233106 | 26 | 289 | 27.4 | 49.9 | 0.00 | 0.00 | 0.00 | 27 | 1009.0 |
| 20260505231556 | 27 | 290 | 24.1 | 51.5 | 0.00 | 0.00 | 0.00 | 26 | 1009.0 |
| 20260505230100 | 27 | 259 | 24.1 | 43.5 | 0.00 | 0.00 | 0.00 | 27 | 1008.9 |
| 20260505224552 | 27 | 307 | 25.7 | 49.9 | 0.00 | 0.00 | 0.00 | 27 | 1008.8 |
| 20260505223058 | 27 | 257 | 25.7 | 48.3 | 0.00 | 0.00 | 0.00 | 26 | 1009.0 |
| 20260505221555 | 27 | 300 | 32.2 | 62.8 | 0.00 | 0.00 | 0.00 | 25 | 1009.0 |
| 20260505220055 | 27 | 259 | 30.6 | 46.7 | 0.00 | 0.00 | 0.00 | 24 | 1009.0 |
| 20260505214609 | 27 | 277 | 25.7 | 49.9 | 0.00 | 0.00 | 0.00 | 24 | 1009.2 |
| 20260505213059 | 27 | 261 | 27.4 | 49.9 | 0.00 | 0.00 | 0.00 | 25 | 1009.2 |
| 20260505211552 | 28 | 252 | 24.1 | 45.1 | 0.00 | 0.00 | 0.00 | 24 | 1009.1 |
| 20260505210055 | 28 | 265 | 25.7 | 41.8 | 0.00 | 0.00 | 0.00 | 23 | 1009.5 |
| 20260505204553 | 28 | 262 | 29.0 | 48.3 | 0.00 | 0.00 | 0.00 | 22 | 1009.4 |
| 20260505203050 | 28 | 265 | 30.6 | 48.3 | 0.00 | 0.00 | 0.00 | 22 | 1009.5 |
| 20260505201557 | 28 | 219 | 19.3 | 45.1 | 0.00 | 0.00 | 0.00 | 22 | 1009.6 |
| 20260505200056 | 28 | 284 | 24.1 | 32.2 | 0.00 | 0.00 | 0.00 | 23 | 1009.6 |
| 20260505194553 | 28 | 229 | 20.9 | 30.6 | 0.00 | 0.00 | 0.00 | 23 | 1009.6 |
| 20260505193053 | 28 | 271 | 16.1 | 33.8 | 0.00 | 0.00 | 0.00 | 23 | 1009.8 |
| 20260505191605 | 28 | 262 | 24.1 | 41.8 | 0.00 | 0.00 | 0.00 | 23 | 1009.9 |
| 20260505184558 | 28 | 248 | 19.3 | 38.6 | 0.00 | 0.00 | 0.00 | 24 | 1010.1 |
| 20260505183114 | 28 | 275 | 22.5 | 43.5 | 0.00 | 0.00 | 0.00 | 24 | 1010.1 |
| 20260505181553 | 28 | 315 | 17.7 | 41.8 | 0.00 | 0.00 | 0.00 | 26 | 1010.3 |
| 20260505180057 | 28 | 306 | 20.9 | 35.4 | 0.00 | 0.00 | 0.00 | 24 | 1010.5 |
| 20260505174551 | 28 | 284 | 19.3 | 38.6 | 0.00 | 0.00 | 0.00 | 25 | 1010.3 |
| 20260505173054 | 27 | 298 | 20.9 | 41.8 | 0.00 | 0.00 | 0.00 | 26 | 1010.7 |
| 20260505171558 | 27 | 265 | 20.9 | 38.6 | 0.00 | 0.00 | 0.00 | 25 | 1010.7 |
| 20260505170053 | 27 | 301 | 19.3 | 29.0 | 0.00 | 0.00 | 0.00 | 25 | 1010.7 |
| 20260505164553 | 27 | 297 | 12.9 | 27.4 | 0.00 | 0.00 | 0.00 | 27 | 1010.6 |
| 20260505163053 | 26 | 270 | 14.5 | 25.7 | 0.00 | 0.00 | 0.00 | 29 | 1010.7 |
| 20260505161615 | 26 | 243 | 12.9 | 25.7 | 0.00 | 0.00 | 0.00 | 31 | 1010.6 |
| 20260505153056 | 25 | 265 | 12.9 | 24.1 | 0.00 | 0.00 | 0.00 | 33 | 1010.2 |
| 20260505151614 | 24 | 266 | 14.5 | 22.5 | 0.00 | 0.00 | 0.00 | 33 | 1010.1 |
| 20260505124555 | 18 | 234 | 8.0 | 12.9 | 0.00 | 0.00 | 0.00 | 78 | 1009.1 |
| 20260505123051 | 18 | 221 | 6.4 | 11.3 | 0.00 | 0.00 | 0.00 | 78 | 1008.8 |
| 20260505121553 | 18 | 207 | 4.8 | 11.3 | 0.00 | 0.00 | 0.00 | 78 | 1008.7 |
| 20260505120110 | 18 | 225 | 3.2 | 9.7 | 0.00 | 0.00 | 0.00 | 79 | 1008.6 |
| 20260505114553 | 18 | 193 | 4.8 | 11.3 | 0.00 | 0.00 | 0.00 | 79 | 1008.2 |
| 20260505113052 | 18 | 221 | 4.8 | 11.3 | 0.00 | 0.00 | 0.00 | 78 | 1008.2 |
| 20260505111552 | 18 | 227 | 4.8 | 12.9 | 0.00 | 0.00 | 0.00 | 78 | 1008.2 |